Regional Weather Roundup
Issued by NWS San Angelo, TX

Home | Current Version | Previous Version | Text Only | Print | Product List | Glossary On
Versions: 1 2 3 4 5 6 7 8 9 10 11 12 13 14 15 16 17 18 19 20 21 22 23 24 25 26 27 28 29 30 31 32 33 34 35 36 37 38 39 40 41 42 43 44 45 46 47 48 49 50
000
ASUS44 KSJT 262010
RWRSJT
WEST CENTRAL TEXAS REGIONAL WEATHER ROUNDUP
NATIONAL WEATHER SERVICE SAN ANGELO TX
200 PM CST MON JAN 26 2015

NOTE: "FAIR" INDICATES FEW OR NO CLOUDS BELOW 12,000 FEET WITH NO
SIGNIFICANT WEATHER AND/OR OBSTRUCTIONS TO VISIBILITY.

TXZ049-054-064>066-071>073-076>078-098-099-113-114-127-128-139-140-
154-155-168>170-262100
...LOCATIONS ACROSS WEST CENTRAL TEXAS...

CITY           SKY/WX    TMP DP  RH WIND       PRES   REMARKS
SAN ANGELO     PTSUNNY   66  37  34 NW7       30.23F
ABILENE        SUNNY     72  34  24 W14       30.19F
DYESS AFB      SUNNY     69  36  29 W8        30.19F
JUNCTION       CLOUDY    67  31  26 W10       30.22F
SWEETWATER     MOSUNNY   66  35  30 SW10      30.25F
BROWNWOOD      SUNNY     72  32  23 NW12      30.19F
COLEMAN        PTCLDY    70  41  34 W12       30.20F
SONORA         CLOUDY    64  32  29 SW9       30.29F
OZONA          FAIR      63  32  31 W3        30.26F
BRADY          SUNNY     68  34  28 W9        30.22F
$$

TEXAS PANHANDLE/OKLAHOMA PANHANDLE

CITY           SKY/WX    TMP DP  RH WIND       PRES   REMARKS
AMARILLO       SUNNY     66  34  30 NW14      30.22F
BORGER         SUNNY     71  28  20 N14G20    30.18F
CANADIAN       SUNNY     73  31  21 NW17      30.12F
DALHART        SUNNY     67  30  25 N14       30.24F
DUMAS          CLEAR     61  40  46 W8        30.22F
GUYMON         NOT AVBL
HEREFORD       CLEAR     68  36  30 N13       30.24F
PAMPA          CLEAR     69  31  24 N12G18    30.18F
PERRYTON         N/A     71  30  22 NW17      30.15F
$$

SOUTHERN PANHANDLE/SOUTH PLAINS/ROLLING PLAINS

CITY           SKY/WX    TMP DP  RH WIND       PRES   REMARKS
LUBBOCK        MOSUNNY   71  26  18 W16G23    30.21F
SNYDER         MOSUNNY  N/A N/A N/A W13       30.23F
CHILDRESS      SUNNY     75  30  19 NW15      30.13F
SEMINOLE       PTCLDY    65  26  22 W10       30.26F
$$

PERMIAN BASIN

CITY           SKY/WX    TMP DP  RH WIND       PRES   REMARKS
MIDLAND        MOSUNNY   66  32  28 W6        30.24F
ODESSA         MOSUNNY   63  31  30 W8        30.25F
WINK           PTSUNNY   61  28  28 SW7       30.24F
$$

FAR WEST/SOUTHWEST MOUNTAINS/TRANS PECOS

CITY           SKY/WX    TMP DP  RH WIND       PRES   REMARKS
ALPINE         CLOUDY    59  25  27 W8        30.34F
DRYDEN           N/A     64  32  30 W5        30.23F
EL PASO        PTSUNNY   57  27  31 N6        30.28F
FORT STOCKTON  PTSUNNY   60  38  43 VRB5      30.26F
GUADALUPE PASS NOT AVBL
MARFA          CLOUDY    54  27  35 S3        30.33F
PECOS          MOCLDY    61  34  35 N3        30.25F
$$

DALLAS/FORT WORTH METROPLEX

CITY           SKY/WX    TMP DP  RH WIND       PRES   REMARKS
DFW AIRPORT    MOSUNNY   68  35  29 SW12      30.10F
FTW MEACHAM    SUNNY     69  39  33 SW12      30.11F
DAL-EXECUTIVE  SUNNY     69  34  27 W8        30.11F
GRAND PRAIRIE  SUNNY     68  37  32 SW12      30.13F
ADDISON        SUNNY     66  32  28 SW8       30.12F
MESQUITE       CLEAR     66  34  30 SW9       30.12F
LANCASTER      CLEAR     66  34  30 W8        30.13F
$$

NORTH CENTRAL TEXAS

CITY           SKY/WX    TMP DP  RH WIND       PRES   REMARKS
SHRMAN/DENISON CLEAR     67  41  38 SW10      30.09F
GAINESVILLE    SUNNY     71  37  28 SW7       30.10F
BRIDGEPORT     CLEAR     72  41  32 SW8       30.13F
DENTON         SUNNY     68  37  32 W8        30.10F
WAXAHACHIE     CLEAR     66  38  36 SW7G16    30.14F
GRANBURY       CLEAR     72  36  27 W6        30.14F
$$

WESTERN NORTH TEXAS

CITY           SKY/WX    TMP DP  RH WIND       PRES   REMARKS
WICHITA FALLS  SUNNY     69  39  33 W13       30.10F
VERNON         CLEAR     78  15   9 W17G23    30.10F
BRECKENRIDGE   CLEAR     74  32  21 W13G18    30.15F
COMANCHE       SUNNY     71  35  26 W14       30.18F
$$

CENTRAL AND SOUTH CENTRAL TEXAS

CITY           SKY/WX    TMP DP  RH WIND       PRES   REMARKS
AUSTIN/BERGSTM PTSUNNY   72  37  28 NW10      30.18F
WACO           SUNNY     70  37  29 SW8       30.15F
HILLSBORO      CLEAR     67  37  32 SW6       30.14F
TEMPLE         MOSUNNY   72  36  26 W13       30.16F
KILLEEN-GRAY   MOSUNNY   70  31  23 W15       30.18F
FORT HOOD      MOSUNNY   71  31  22 MISG      30.17F
GEORGETOWN     SUNNY     73  36  25 NW15G21   30.18F
LAGO VISTA     FAIR      71  35  26 W8        30.20F
SAN MARCOS     SUNNY     68  41  37 S8        30.20F
NEW BRAUNFELS  CLOUDY    70  40  33 W6        30.18F
RANDOLPH AFB   CLOUDY    71  35  26 W7        30.20F
SAN ANTONIO    CLOUDY    71  35  26 SW8       30.20F
STINSON        CLOUDY    72  34  24 W7        30.19F
PLEASANTON     NOT AVBL
LA GRANGE      PTSUNNY   71  40  31 NW7       30.17F
GIDDINGS       NOT AVBL
$$

EAST TEXAS

CITY           SKY/WX    TMP DP  RH WIND       PRES   REMARKS
PARIS          SUNNY     63  37  39 SW9       30.09F
CLARKSVILLE    NOT AVBL
TYLER          SUNNY     66  31  27 SW10      30.12F
LONGVIEW       SUNNY     64  32  30 W8        30.11F
PALESTINE      CLEAR     65  34  31 W8        30.16F
NACOGDOCHES    SUNNY     63  34  34 NW9       30.15F
$$

TEXAS HILL COUNTRY AND EDWARDS PLATEAU

CITY           SKY/WX    TMP DP  RH WIND       PRES   REMARKS
LLANO          MOCLDY    70  39  32 W8        30.23F HAZE
HORSESHOE BAY  FAIR      69  36  29 NW5       30.20F
KERRVILLE      CLOUDY    70  30  22 W9        30.22F
FREDERICKSBRG  CLOUDY    68  32  26 W9        30.21F
ROCKSPRINGS    NOT AVBL
HONDO          CLOUDY    72  32  23 W8        30.23F
UVALDE         MOCLDY    69  34  27 W5        30.23F
DEL RIO        CLOUDY    68  34  28 CALM      30.22F
$$

SOUTHEAST TEXAS

CITY           SKY/WX    TMP DP  RH WIND       PRES   REMARKS
COLLEGE STN    MOSUNNY   65  33  30 VRB6      30.18F
CALDWELL       PTCLDY    66  34  30 W7        30.20F
CROCKETT       CLEAR     68  37  32 W7        30.18F
BRENHAM        MOSUNNY   68  35  29 NW3       30.19F
HUNTSVILLE     SUNNY     65  32  29 W8        30.16F
CONROE         SUNNY     63  36  36 NW8       30.18F
HOUSTON BUSH   PTSUNNY   64  34  32 NW3       30.18F
HOUSTON HOBBY  PTSUNNY   66  31  27 NW10      30.17F
PERLAND        MOSUNNY   66  31  27 NW10      30.19F
WHARTON        MOCLDY    65  39  38 SW7       30.20F
$$

THE UPPER TEXAS COAST

CITY           SKY/WX    TMP DP  RH WIND       PRES   REMARKS
ORANGE         CLEAR     65  33  30 NW9       30.16F
PORT ARTHUR    SUNNY     67  35  30 NW9       30.15F
GALVESTON      MOSUNNY   63  38  39 W7        30.18F
ANGLETON       MOSUNNY   65  33  30 NW6       30.18F
BAY CITY       MOCLDY    65  37  35 CALM      30.19F
$$

TEXAS COASTAL BEND, RIO GRANDE PLAINS DEEP SOUTH TEXAS

CITY           SKY/WX    TMP DP  RH WIND       PRES   REMARKS
VICTORIA       PTSUNNY   71  38  29 NW5       30.20F
BEEVILLE       FAIR      71  36  28 NW5       30.21F
ROCKPORT       PTSUNNY   68  38  33 SE8       30.21F
PORT ARANSAS   MOCLDY    64  40  41 SE6       30.21F
PORT LAVACA    MOCLDY    69  42  36 CALM      30.20F
CORPUS CHRISTI PTSUNNY   72  39  30 SW5       30.21F
KINGSVILLE NAS PTSUNNY   75  38  26 E3        30.21F
COTULLA        PTSUNNY   75  33  21 CALM      30.22F
LAREDO         SUNNY     75  36  23 SE5       30.24F
BROWNSVILLE    MOSUNNY   77  30  17 E6        30.24F
PORT ISABEL    PTSUNNY   71  32  23 E6        30.23F
HEBBRONVILLE   MOCLDY    73  25  16 SE3       30.22F
MCALLEN        MOSUNNY   74  35  24 S5        30.24F
WESLACO        MOSUNNY   75  37  25 SE3       30.23F
FALFURRIAS     MOCLDY    75  26  16 E3        30.21F
EDINBURG       PTCLDY    76  24  14 E3        30.23F
$$


USA.gov is the U.S. government's official web portal to all federal, state and local government web resources and services.